Weather History for MMAA - November, 2012

Change the Weather History Date:

Sunday, November 11, 2012

  Actual Average Record
Temperature  
Mean Temperature 83 °F -  
Max Temperature 92 °F 90 °F 93 °F (1996)
Min Temperature 74 °F 73 °F 71 °F (1996)
Cooling Degree Days 18    
Growing Degree Days 33 (Base 50)    
Moisture  
Dew Point 75 °F    
Average Humidity 79    
Maximum Humidity 95    
Minimum Humidity 51    
Precipitation  
Precipitation 0.00 in 0.05 in - ()
Sea Level Pressure  
Sea Level Pressure 29.89 in    
Wind  
Wind Speed 2 mph ()    
Max Wind Speed 9 mph    
Max Gust Speed -    
Visibility 7.5 miles    
Events      
Averages and records for this station are not official NWS values.
T = Trace of Precipitation, MM = Missing Value Source: Averaged Metar Reports

Daily Weather History Graph

Daily Weather History Graph

Search for Another Location

Airport or City:

Trip Planner

Search our weather history database for the weather conditions in past years. The results will help you decide how hot, cold, wet, or windy it might be!

Date:

Astronomy

Nov. 11, 2012 Rise Set
Actual Time 6:41 AM CST 6:04 PM CST
Civil Twilight 6:18 AM CST 6:27 PM CST
Nautical Twilight 5:52 AM CST 6:53 PM CST
Astronomical Twilight 5:26 AM CST 7:19 PM CST
Moon 4:15 AM CST (11/11) 4:15 PM CST (11/11)
Length of Visible Light 12h 08m
Length of Day
11h 23m
Waning Crescent, 7% of the Moon is Illuminated
Nov 11
Waning Crescent
Nov 13
New
Nov 20
First Quarter
Nov 28
Full
Dec 6
Last Quarter

Hourly Weather History & Observations

Time (CST) Temp. Heat Index Dew Point Humidity Pressure Visibility Wind Dir Wind Speed Gust Speed Precip Events Conditions
12:42 AM 78.8 °F - 77.0 °F 94% 29.89 in 8.0 mi Calm Calm - N/A   Clear
1:43 AM 78.8 °F - 77.0 °F 94% 29.88 in 8.0 mi Calm Calm - N/A   Clear
2:43 AM 77.0 °F - 73.4 °F 89% 29.88 in 8.0 mi Calm Calm - N/A   Clear
2:50 AM 76 °F - 75 °F 95% 29.88 in 6 mi NNE 2.2 mph - -   Clear
3:42 AM 77.0 °F - 73.4 °F 89% 29.88 in 8.0 mi Calm Calm - N/A   Clear
4:43 AM 77.0 °F - 73.4 °F 89% 29.88 in 8.0 mi Calm Calm - N/A   Clear
5:50 AM 76 °F - 74 °F 90% 29.88 in 6 mi North 4.5 mph - -   Clear
5:50 AM 77.0 °F - 73.4 °F 89% 29.86 in 8.0 mi Calm Calm - N/A   Clear
6:45 AM 77.0 °F - 73.4 °F 89% 29.90 in 5.0 mi Calm Calm - N/A   Haze
7:45 AM 78.8 °F - 75.2 °F 89% 29.92 in 6.0 mi Calm Calm - N/A   Haze
8:44 AM 78.8 °F - 75.2 °F 89% 29.93 in 8.0 mi Calm Calm - N/A   Scattered Clouds
8:50 AM 81 °F - 75 °F 78% 29.94 in 12 mi North 2.2 mph - -   Clear
9:50 AM 82.4 °F 89.5 °F 75.2 °F 79% 29.94 in 6.0 mi Calm Calm - N/A   Scattered Clouds
10:45 AM 86.0 °F 96.9 °F 77.0 °F 74% 29.93 in 6.0 mi Calm Calm - N/A   Scattered Clouds
11:43 AM 89.6 °F 102.2 °F 77.0 °F 66% 29.91 in 6.0 mi WSW 8.1 mph - N/A   Haze
11:50 AM 89 °F - 73 °F 51% 29.90 in 12 mi West 4.5 mph - -   Scattered Clouds
12:44 PM 89.6 °F 102.2 °F 77.0 °F 66% 29.89 in 7.0 mi WSW 9.2 mph - N/A   Scattered Clouds
1:42 PM 89.6 °F 99.8 °F 75.2 °F 62% 29.86 in 7.0 mi WSW 9.2 mph - N/A   Mostly Cloudy
2:42 PM 87.8 °F 97.6 °F 75.2 °F 66% 29.87 in 7.0 mi WSW 9.2 mph - N/A   Mostly Cloudy
2:50 PM 88 °F - 75 °F 57% 29.84 in 12 mi West 4.5 mph - -   Partly Cloudy
3:43 PM 87.8 °F 97.6 °F 75.2 °F 66% 29.83 in 7.0 mi WSW 8.1 mph - N/A   Mostly Cloudy
4:46 PM 87.8 °F 97.6 °F 75.2 °F 66% 29.82 in 7.0 mi WSW 9.2 mph - N/A   Mostly Cloudy
5:42 PM 87.8 °F 97.6 °F 75.2 °F 66% 29.84 in 7.0 mi WSW 9.2 mph - N/A   Mostly Cloudy
5:50 PM 84 °F - 76 °F 71% 29.84 in 11 mi West 2.2 mph - -   Mostly Cloudy
6:46 PM 84.2 °F 94.1 °F 77.0 °F 79% 29.84 in 7.0 mi Calm Calm - N/A   Mostly Cloudy
7:50 PM 82.4 °F 90.9 °F 77.0 °F 84% 29.86 in 7.0 mi WSW 6.9 mph - N/A   Mostly Cloudy
8:45 PM 80 °F - 76 °F 83% 29.90 in 6 mi WNW 2.2 mph - -   Partly Cloudy
8:45 PM 82.4 °F 90.9 °F 77.0 °F 84% 29.90 in 7.0 mi Calm Calm - N/A   Mostly Cloudy
9:43 PM 82.4 °F 90.9 °F 77.0 °F 84% 29.90 in 7.0 mi Calm Calm - N/A   Mostly Cloudy
10:48 PM 80.6 °F 86.2 °F 75.2 °F 84% 29.90 in 7.0 mi Calm Calm - N/A   Mostly Cloudy
11:45 PM 78 °F - 76 °F 91% 29.92 in 6 mi NW 2.2 mph - -   Partly Cloudy
11:46 PM 80.6 °F 86.2 °F 75.2 °F 84% 29.92 in 7.0 mi Calm Calm - N/A   Mostly Cloudy